SCP
0 0 0 1 1 1 1 1 1 1 1 0 0 0 0 1 1 0 0 0 0 0 0 0 0 0 0 0 0 0 0 0 0 0 0 0 0 0 0 0 0 0 0
0 0 0 1 1 1 1 1 1 1 1 0 0 0 0 0 0 0 0 0 0 0 0 0 0 0 0 0 0 0 0 0 0 0 0 0 0 0 0 0 0 0 0
0 0 0 0 1 1 1 1 1 1 1 0 0 0 0 0 0 0 0 0 0 0 0 0 0 0 0 0 0 0 0 0 0 0 0 0 0 0 0 0 0 0 0
0 0 0 0 1 1 1 1 1 1 1 0 0 0 0 0 0 0 0 0 0 0 0 0 0 0 0 0 0 0 0 0 0 0 0 0 0 0 0 0 0 0 0
0 0 0 0 0 1 1 1 1 1 1 1 0 0 0 0 0 0 0 0 0 0 0 0 0 0 0 0 0 0 0 0 0 0 0 0 0 0 0 0 0 0 0
0 0 0 0 0 0 1 1 1 1 1 1 0 0 0 0 0 0 0 0 0 0 0 0 0 0 0 0 0 0 0 0 0 0 0 0 0 0 0 0 0 0 0
0 0 0 0 0 0 0 1 1 1 1 0 0 0 0 0 0 0 0 0 0 0 0 0 0 0 0 0 0 0 0 0 0 0 0 0 0 0 0 0 0 0 0
0 0 0 0 0 0 0 1 1 1 0 0 0 0 0 0 0 0 0 0 0 0 0 0 0 0 0 0 0 0 0 0 0 0 0 0 0 0 0 0 0 0 0
0 0 0 0 0 0 0 0 1 0 0 0 0 0 0 0 0 0 0 0 0 0 0 0 0 0 0 0 0 0 0 0 0 0 0 0 0 0 0 0 0 0 0
0 0 0 0 0 0 0 0 0 0 0 0 0 0 0 0 0 0 0 0 0 0 0 0 0 0 0 0 0 0 0 0 0 0 0 0 0 0 0 0 0 0 0
0 0 0 0 0 0 0 0 0 0 0 0 0 0 0 0 0 0 0 0 0 0 0 0 0 0 0 0 0 0 0 0 0 0 0 0 0 0 0 0 0 0 0
0 0 0 0 0 0 0 0 0 0 0 0 0 0 0 0 0 0 0 0 0 0 0 0 0 0 0 0 0 0 0 0 0 0 0 0 0 0 0 0 0 0 0
0 0 0 0 0 0 0 0 0 0 0 0 0 0 0 0 0 0 0 0 0 0 0 0 0 0 0 0 0 0 1 0 0 0 0 0 0 0 0 0 0 0 0
0 0 0 0 0 0 0 0 0 0 0 0 0 0 0 0 0 0 0 0 0 0 0 0 0 0 0 0 1 1 1 1 0 0 0 0 0 0 0 0 0 0 0
0 0 0 0 0 0 0 0 0 0 0 0 0 0 0 0 0 0 0 0 0 0 0 0 0 0 1 1 1 1 1 0 0 0 0 0 0 0 0 0 0 0 0
0 0 0 0 0 0 0 0 0 0 0 0 0 0 0 0 0 0 0 0 0 0 0 0 0 0 0 0 0 0 0 0 0 0 0 0 0 0 0 0 0 0 0
0 0 0 0 0 0 0 0 0 0 0 0 0 0 0 0 0 0 0 0 0 0 0 0 0 0 0 0 0 0 0 0 0 0 0 0 0 0 0 0 0 0 0
0 0 0 0 0 0 0 0 0 0 0 0 0 0 0 0 0 0 0 0 0 0 0 0 0 0 0 0 0 0 0 0 0 0 0 0 0 0 0 0 0 0 0
0 0 0 0 0 0 0 0 0 0 0 0 0 0 0 0 0 0 0 0 0 0 0 0 0 0 0 0 0 0 0 0 0 0 0 0 0 0 0 0 0 0 0
0 0 0 0 0 0 0 0 0 0 0 0 0 0 0 0 0 0 0 0 0 0 0 0 0 0 0 0 0 0 0 0 0 0 0 0 0 0 0 0 0 0 0
0 0 0 0 0 0 0 0 0 0 0 0 0 0 0 0 0 0 0 0 0 0 0 0 0 0 0 0 0 0 0 0 0 0 0 0 0 0 0 0 0 0 0
0 0 0 0 0 0 0 0 0 0 0 0 0 0 0 0 0 0 0 0 0 0 0 0 0 0 0 0 0 0 0 0 0 0 0 0 0 0 0 0 0 0 0
0 0 0 0 0 0 0 0 0 0 0 0 0 0 0 0 0 0 0 0 0 0 0 0 0 0 0 0 0 0 0 0 0 0 0 0 0 0 0 0 0 0 0
0 0 0 0 0 0 0 0 0 0 0 0 0 0 0 0 0 0 0 0 0 0 0 0 0 0 0 0 0 0 0 0 0 0 0 0 0 0 0 0 0 0 0
0 0 0 0 0 0 0 0 0 0 0 0 0 0 0 0 0 0 0 0 0 0 0 0 0 0 0 0 0 0 0 0 0 0 0 0 0 0 0 0 0 0 0
0 0 0 0 0 0 0 0 0 0 0 0 0 0 0 0 0 0 0 0 0 0 0 0 0 0 0 0 0 0 0 0 0 0 0 0 0 0 0 0 0 0 0
Wind_Speed
7 5 6 6 6 5 6 6 6 6 5 4 3 3 3 2 2 2 2 2 2 3 3 2 2 2 3 3 3 2 2 1 2 2 1 2 1 1 1 1 1 1 1
5 5 5 5 6 7 6 6 7 7 6 5 4 3 3 2 2 1 2 2 2 3 3 3 3 3 2 3 3 3 2 1 1 2 1 1 2 1 1 1 1 1 1
9 7 7 7 7 7 7 6 7 7 6 5 3 2 2 1 1 1 2 2 2 2 2 3 3 3 3 3 4 4 4 3 1 1 3 3 3 1 2 1 1 1 1
8 7 7 7 7 8 6 6 6 7 6 6 5 6 4 4 4 3 2 1 2 2 2 2 3 3 3 3 3 3 3 3 3 1 1 2 2 2 1 2 1 1 2
8 8 8 8 7 6 6 6 6 6 6 7 7 6 4 3 2 1 2 2 1 1 2 2 3 3 3 3 3 3 3 3 3 3 2 1 1 1 2 3 2 2 2
7 7 5 4 5 5 5 5 6 6 6 7 7 6 6 4 3 3 3 2 2 2 2 2 2 3 2 3 3 3 4 3 3 3 2 3 3 3 3 3 3 3 2
6 6 5 5 5 5 5 5 6 6 6 7 7 7 7 6 6 5 4 3 2 2 3 3 3 2 3 3 3 3 3 4 4 4 3 3 3 2 2 2 2 3 2
4 6 6 6 6 6 6 5 6 6 6 7 7 6 6 5 4 5 4 4 4 4 3 3 3 3 3 3 3 3 3 3 4 4 4 3 3 2 3 3 2 2 3
4 5 5 5 5 5 6 6 6 5 5 6 5 5 5 5 5 4 4 4 3 3 4 4 4 3 3 3 3 3 3 3 4 4 4 3 3 2 2 2 3 3 3
3 3 4 5 5 5 5 4 5 5 4 4 5 4 5 5 5 4 4 4 4 3 4 4 4 3 3 3 3 3 3 3 3 3 3 3 2 2 2 2 2 3 4
3 3 3 3 3 3 4 4 4 3 3 4 4 4 4 4 4 4 5 4 4 4 4 4 4 4 4 3 3 3 3 4 3 3 3 4 3 2 2 2 2 3 3
1 2 1 1 1 1 2 3 3 4 4 4 3 3 3 3 3 3 3 3 4 4 4 4 4 4 3 3 4 4 4 4 4 4 3 4 3 3 2 2 3 3 3
1 1 0 1 1 1 1 2 2 3 2 3 3 3 3 3 3 3 3 3 3 3 3 4 4 4 4 4 4 4 4 4 4 4 4 4 4 4 3 3 3 3 3
1 1 1 1 1 1 1 1 2 1 1 2 2 3 3 4 3 3 3 3 3 3 3 4 4 4 4 4 4 4 4 4 4 4 4 4 5 5 5 4 4 3 3
2 1 2 2 1 1 1 1 1 1 1 2 2 3 2 2 2 2 3 3 3 3 3 3 3 3 4 4 4 4 4 4 3 3 4 4 5 5 4 3 3 3 3
3 2 2 2 2 2 2 2 1 1 1 2 2 1 1 1 1 2 2 2 2 2 2 3 3 4 3 4 5 4 3 3 4 4 3 3 4 5 6 5 5 4 4
3 3 3 3 2 2 2 2 2 1 1 1 1 1 1 2 2 1 2 2 3 2 3 3 3 3 4 5 5 5 3 4 4 4 3 3 3 4 4 5 6 5 6
3 3 2 2 2 1 1 1 0 0 0 1 1 1 2 2 1 2 2 3 2 3 3 3 4 4 4 5 5 5 4 4 4 4 4 4 4 4 4 4 4 4 5
3 2 2 1 1 0 0 0 0 0 1 2 2 2 2 3 2 3 3 3 3 3 3 3 3 4 4 5 6 5 3 3 4 4 4 4 4 5 6 4 4 5 5
2 1 1 1 0 1 0 1 1 1 3 3 3 3 3 3 4 4 3 2 3 3 3 3 3 4 4 6 6 5 3 3 3 3 4 5 5 6 6 4 4 5 5
2 1 1 1 1 1 0 1 2 3 4 3 2 2 3 3 3 3 2 2 2 2 3 4 4 4 4 6 7 7 3 3 3 3 3 3 6 6 7 5 4 6 4
2 2 1 2 2 1 1 2 4 4 2 2 2 3 3 2 2 2 2 2 2 3 3 3 4 3 3 4 6 8 7 5 4 4 3 4 6 7 7 5 6 6 3
2 2 2 2 2 1 1 3 4 2 2 2 3 3 2 2 2 2 2 2 2 3 3 3 4 4 3 4 7 7 8 7 4 3 5 5 6 6 5 6 6 4 2
3 2 2 2 3 3 3 3 3 2 2 3 3 2 2 2 2 2 2 3 3 3 3 4 4 3 3 3 3 3 4 5 5 4 4 5 6 5 4 3 4 3 3
2 2 2 3 4 4 4 3 3 2 2 3 2 2 2 2 2 3 3 4 4 4 5 4 4 4 5 5 6 4 3 3 3 1 1 1 2 2 2 2 3 2 2
3 3 3 4 4 4 4 4 3 2 3 3 3 2 2 2 2 3 3 5 5 6 7 7 5 5 6 6 7 8 7 6 4 2 2 3 3 3 3 4 4 4 4
Wind_Direction
230 211 200 195 187 189 190 190 191 191 178 172 170 179 194 194 197 201 193 188 191 185 176 175 169 175 180 183 173 157 155 147 128 105 20 350 327 276 260 226 195 233 235
224 215 203 198 195 195 194 193 196 191 185 185 182 182 178 188 197 197 197 197 195 193 184 179 182 181 182 180 175 165 161 167 157 151 136 326 329 332 278 218 210 245 256
216 214 207 206 200 198 196 198 199 193 189 180 159 134 111 102 159 208 215 220 201 194 190 186 184 183 181 196 192 182 172 181 202 175 164 174 220 289 306 267 229 238 238
218 212 208 206 205 202 195 195 196 194 188 175 170 169 177 188 202 201 205 229 216 202 190 184 183 188 186 198 202 190 184 176 194 211 235 212 171 174 269 305 293 262 242
214 208 206 205 203 195 191 193 188 193 188 180 180 182 189 195 180 173 183 212 231 218 195 188 185 191 191 196 197 192 189 191 194 195 193 209 226 197 195 254 277 290 266
211 208 203 195 198 192 192 189 188 195 190 185 186 188 188 183 173 187 201 211 218 225 222 206 198 198 199 197 202 202 198 201 202 204 197 190 192 199 198 227 249 260 268
202 199 197 195 197 194 200 196 192 195 193 191 193 195 195 189 192 197 202 203 212 223 227 214 208 209 212 202 195 199 206 203 204 212 218 217 219 203 196 210 238 255 271
202 197 197 196 198 198 198 196 193 196 195 198 201 200 197 196 202 201 200 203 210 219 216 206 209 212 210 203 192 196 209 200 207 219 218 221 227 217 210 200 201 253 272
217 208 196 194 198 199 201 196 194 195 199 202 200 200 200 200 203 201 201 205 211 208 203 201 204 209 206 203 193 200 214 207 215 221 221 224 233 226 225 216 206 207 249
223 212 200 198 198 198 196 189 191 195 198 201 202 200 202 205 203 196 202 206 209 203 199 198 199 202 202 202 196 200 210 210 223 221 221 228 232 229 227 224 228 222 224
232 217 208 198 194 185 184 189 193 194 194 199 201 197 199 200 200 202 207 207 204 198 198 199 197 200 202 200 199 206 206 213 226 224 221 232 224 220 226 224 227 229 218
252 220 195 148 153 186 197 197 197 202 205 198 192 195 194 190 195 205 209 200 199 198 198 195 197 201 203 203 203 209 212 217 224 226 222 233 222 221 224 223 230 234 225
345 356 87 167 197 206 208 212 211 214 205 184 183 193 195 191 200 210 209 199 200 201 198 195 201 206 207 210 214 213 218 222 226 224 221 227 216 226 229 227 231 237 241
340 354 313 269 244 226 214 219 232 218 193 178 185 202 207 203 204 205 202 204 203 202 207 208 211 213 213 214 216 218 221 224 229 229 226 223 220 224 223 226 228 231 237
320 283 272 279 288 288 269 247 239 224 172 170 193 220 216 201 193 199 205 206 207 211 212 212 215 216 218 219 215 217 220 221 229 234 232 230 228 228 228 229 224 221 229
273 274 279 281 269 262 263 266 249 227 178 188 219 225 187 175 194 205 201 200 209 217 208 214 217 220 226 230 222 215 218 220 224 234 239 238 225 228 231 235 235 228 228
270 266 256 247 251 256 248 244 251 246 176 209 241 227 207 207 214 206 198 208 213 209 212 222 226 237 243 237 231 226 224 225 228 231 233 240 240 231 231 232 237 244 248
284 280 269 265 275 275 287 291 355 65 230 258 263 256 224 227 222 213 225 230 223 218 224 229 230 239 249 243 239 234 225 228 232 234 233 234 235 233 225 218 230 243 248
269 260 256 259 277 286 304 121 150 285 263 272 272 265 233 221 215 223 235 236 229 230 232 235 235 241 249 241 238 230 229 232 238 240 239 237 237 240 231 222 234 251 259
316 312 336 17 2 325 92 164 219 240 254 260 263 260 240 226 227 232 235 239 234 236 236 241 239 242 251 249 240 229 226 235 243 245 241 238 238 244 234 226 228 244 255
333 1 13 332 304 332 138 214 241 249 262 275 274 260 243 235 237 243 244 242 239 241 240 248 250 244 246 250 243 233 227 233 238 242 244 243 241 246 244 239 230 246 258
350 359 344 321 338 6 209 247 253 270 294 282 262 256 247 235 225 228 244 242 231 238 247 253 261 253 249 246 248 244 240 242 240 244 247 249 250 250 250 248 254 264 265
327 340 326 315 329 334 277 258 277 300 298 275 262 263 257 242 227 215 224 228 227 234 245 246 254 261 255 253 252 251 251 248 247 254 257 261 259 257 251 250 256 252 226
318 329 328 312 307 309 298 281 294 295 266 257 262 262 248 253 248 229 219 218 220 229 239 243 249 259 257 248 247 247 250 250 252 259 259 255 257 255 259 258 249 234 227
308 306 286 281 289 300 298 300 297 276 261 259 261 257 243 237 242 239 233 231 228 224 230 237 237 241 251 248 243 238 239 238 240 256 272 263 261 249 257 259 254 242 235
298 294 285 283 290 296 296 302 297 261 247 255 255 247 242 237 235 244 265 257 254 256 251 252 250 253 255 263 247 242 244 242 234 206 235 241 245 248 252 255 258 248 243